Cortland County-chase Field, NY

1:43 AM EDT on August 19, 2017 (GMT -0400)
Cortland County-chase Field

Weather History for KN03 - January, 2014

Change the Weather History Date:

Wednesday, January 15, 2014

  Actual Average (KITH) Record (KITH)
Temperature  
Mean Temperature 34 °F -  
Max Temperature 41 °F 30 °F 66 °F (1932)
Min Temperature 26 °F 15 °F -25 °F (1957)
Degree Days  
Heating Degree Days 32    
Moisture  
Dew Point 31 °F    
Average Humidity 94    
Maximum Humidity 100    
Minimum Humidity 75    
Precipitation  
Precipitation 0.00 in - - ()
Sea Level Pressure  
Sea Level Pressure 29.86 in    
Wind  
Wind Speed 2 mph (SW)    
Max Wind Speed 10 mph    
Max Gust Speed 18 mph    
Visibility 6 miles    
Events Fog , Rain , Snow    
Averages and records for this station are not official NWS values.
T = Trace of Precipitation, MM = Missing Value Source: NWS Daily Summary

Daily Weather History Graph

Daily Weather History Graph

Search for Another Location

Airport or City:

Trip Planner

Search our weather history database for the weather conditions in past years. The results will help you decide how hot, cold, wet, or windy it might be!

Date:

Astronomy

Jan. 15, 2014 Rise Set
Actual Time 7:32 AM EST 4:56 PM EST
Civil Twilight 7:00 AM EST 5:28 PM EST
Nautical Twilight 6:26 AM EST 6:02 PM EST
Astronomical Twilight 5:52 AM EST 6:36 PM EST
Moon 4:53 PM EST (1/15) 6:45 AM EST (1/15)
Length of Visible Light 10h 27m
Length of Day
9h 24m
Full, 100% of the Moon is Illuminated
Jan 15
Full
Jan 15
Full
Jan 24
Last Quarter
Jan 30
New
Feb 6
First Quarter

Hourly Weather History & Observations

Time (EST) Temp. Windchill Dew Point Humidity Pressure Visibility Wind Dir Wind Speed Gust Speed Precip Events Conditions
12:15 AM 30.2 °F - 30.2 °F 100% 29.82 in 1.0 mi Calm Calm - N/A   Mostly Cloudy
12:35 AM 30.2 °F - 30.2 °F 100% 29.82 in 1.8 mi Calm Calm - N/A   Mist
12:55 AM 28.4 °F - 28.4 °F 100% 29.82 in 1.5 mi Calm Calm - N/A   Mostly Cloudy
1:15 AM 28.4 °F - 28.4 °F 100% 29.82 in 0.8 mi Calm Calm - N/A   Overcast
1:35 AM 26.6 °F - 26.6 °F 100% 29.83 in 0.2 mi Calm Calm - N/A Fog Light Freezing Fog
1:55 AM 26.6 °F - 26.6 °F 100% 29.83 in 0.2 mi Calm Calm - N/A Fog Light Freezing Fog
2:15 AM 26.6 °F - 26.6 °F 100% 29.83 in 0.2 mi Calm Calm - N/A Fog Light Freezing Fog
2:35 AM 28.4 °F - 28.4 °F 100% 29.83 in 2.0 mi Calm Calm - N/A   Mostly Cloudy
2:55 AM 26.6 °F - 26.6 °F 100% 29.82 in 3.0 mi Calm Calm - N/A   Clear
3:15 AM 26.6 °F - 26.6 °F 100% 29.82 in 2.5 mi Calm Calm - N/A   Scattered Clouds
3:35 AM 26.6 °F - 26.6 °F 100% 29.81 in 2.5 mi Calm Calm - N/A   Clear
3:55 AM 26.6 °F - 26.6 °F 100% 29.81 in 2.5 mi Calm Calm - N/A   Clear
4:15 AM 26.6 °F - 26.6 °F 100% 29.81 in 2.5 mi Calm Calm - N/A   Clear
4:35 AM 28.4 °F - 28.4 °F 100% 29.82 in 3.0 mi Calm Calm - N/A   Mostly Cloudy
4:55 AM 26.6 °F - 26.6 °F 100% 29.81 in 3.0 mi Calm Calm - N/A   Overcast
5:15 AM 30.2 °F - 30.2 °F 100% 29.82 in 3.0 mi Calm Calm - N/A   Overcast
5:35 AM 30.2 °F - 30.2 °F 100% 29.82 in 3.0 mi Calm Calm - N/A   Overcast
5:55 AM 30.2 °F 26.7 °F 30.2 °F 100% 29.81 in 3.0 mi SW 3.5 mph - N/A   Overcast
6:15 AM 32.0 °F 27.5 °F 32.0 °F 100% 29.81 in 4.0 mi SW 4.6 mph - N/A   Overcast
6:35 AM 32.0 °F - 32.0 °F 100% 29.82 in 5.0 mi Calm Calm - N/A   Overcast
6:55 AM 32.0 °F - 32.0 °F 100% 29.83 in 7.0 mi Calm Calm - N/A   Overcast
7:15 AM 32.0 °F - 32.0 °F 100% 29.83 in 5.0 mi Calm Calm - N/A   Overcast
7:35 AM 32.0 °F - 32.0 °F 100% 29.84 in 5.0 mi Calm Calm - N/A   Overcast
7:55 AM 33.8 °F 25.8 °F 33.8 °F 100% 29.85 in 7.0 mi SSW 10.4 mph - N/A Snow Light Snow
8:15 AM 33.8 °F 27.7 °F 33.8 °F 100% 29.85 in 5.0 mi SW 6.9 mph - N/A Snow Light Snow
8:35 AM 33.8 °F 28.6 °F 33.8 °F 100% 29.86 in 7.0 mi SSW 5.8 mph - N/A Snow Light Snow
8:55 AM 33.8 °F 27.7 °F 33.8 °F 100% 29.86 in 10.0 mi SSW 6.9 mph - N/A   Overcast
9:15 AM 35.6 °F 30.7 °F 33.8 °F 93% 29.87 in 10.0 mi SSW 5.8 mph - N/A   Overcast
9:35 AM 35.6 °F 29.9 °F 33.8 °F 93% 29.86 in 10.0 mi SW 6.9 mph - N/A   Mostly Cloudy
9:55 AM 35.6 °F 28.6 °F 33.8 °F 93% 29.87 in 10.0 mi South 9.2 mph - N/A   Overcast
10:15 AM 37.4 °F 31.4 °F 33.8 °F 87% 29.87 in 10.0 mi SSW 8.1 mph - N/A   Overcast
10:35 AM 37.4 °F 30.8 °F 33.8 °F 87% 29.86 in 10.0 mi SSW 9.2 mph - N/A   Mostly Cloudy
10:55 AM 39.2 °F 34.2 °F 33.8 °F 81% 29.87 in 10.0 mi SSW 6.9 mph - N/A   Overcast
11:15 AM 37.4 °F 30.3 °F 33.8 °F 87% 29.86 in 10.0 mi SSW 10.4 mph - N/A   Overcast
11:35 AM 39.2 °F 33.6 °F 33.8 °F 81% 29.86 in 10.0 mi SW 8.1 mph 16.1 mph N/A   Overcast
11:55 AM 39.2 °F 33.0 °F 33.8 °F 81% 29.85 in 10.0 mi SSW 9.2 mph 18.4 mph N/A   Overcast
12:15 PM 39.2 °F 32.5 °F 33.8 °F 81% 29.84 in 10.0 mi SW 10.4 mph - N/A   Overcast
12:35 PM 39.2 °F 33.0 °F 33.8 °F 81% 29.84 in 10.0 mi SW 9.2 mph - N/A   Overcast
12:55 PM 39.2 °F 33.6 °F 33.8 °F 81% 29.84 in 10.0 mi SW 8.1 mph - N/A   Overcast
1:15 PM 39.2 °F 35.9 °F 33.8 °F 81% 29.83 in 10.0 mi SW 4.6 mph - N/A   Overcast
1:35 PM 39.2 °F 37.0 °F 33.8 °F 81% 29.83 in 10.0 mi SW 3.5 mph - N/A   Overcast
1:55 PM 39.2 °F 35.0 °F 33.8 °F 81% 29.83 in 10.0 mi SSW 5.8 mph - N/A   Overcast
2:15 PM 41.0 °F 37.1 °F 33.8 °F 76% 29.83 in 10.0 mi SSW 5.8 mph - N/A   Overcast
2:35 PM 41.0 °F 39.0 °F 33.8 °F 76% 29.83 in 10.0 mi WSW 3.5 mph - N/A   Overcast
2:55 PM 39.2 °F 35.9 °F 33.8 °F 81% 29.84 in 10.0 mi SW 4.6 mph - N/A   Overcast
3:15 PM 39.2 °F 34.2 °F 32.0 °F 75% 29.85 in 10.0 mi West 6.9 mph - N/A Rain Rain
3:35 PM 35.6 °F 32.8 °F 33.8 °F 93% 29.86 in 10.0 mi NW 3.5 mph - N/A Rain Light Rain
3:55 PM 33.8 °F 28.6 °F 32.0 °F 93% 29.87 in 1.2 mi NNW 5.8 mph - N/A Snow Light Snow
4:15 PM 33.8 °F 30.8 °F 32.0 °F 93% 29.88 in 1.0 mi ENE 3.5 mph - N/A Snow Light Snow
4:35 PM 32.0 °F 28.7 °F 32.0 °F 100% 29.88 in 2.5 mi ENE 3.5 mph - N/A Snow Light Snow
4:55 PM 32.0 °F 27.5 °F 32.0 °F 100% 29.88 in 2.0 mi NNE 4.6 mph - N/A Snow Light Snow
5:15 PM 32.0 °F - 32.0 °F 100% 29.89 in 4.0 mi Calm Calm - N/A   Overcast
5:35 PM 32.0 °F - 32.0 °F 100% 29.89 in 4.0 mi Calm Calm - N/A   Overcast
5:55 PM 32.0 °F 28.7 °F 32.0 °F 100% 29.90 in 4.0 mi NNE 3.5 mph - N/A   Overcast
6:15 PM 32.0 °F - 32.0 °F 100% 29.90 in 5.0 mi Calm Calm - N/A   Overcast
6:35 PM 32.0 °F 28.7 °F 32.0 °F 100% 29.91 in 7.0 mi NE 3.5 mph - N/A   Overcast
6:55 PM 32.0 °F - 32.0 °F 100% 29.91 in 7.0 mi Calm Calm - N/A   Overcast
7:15 PM 32.0 °F - 32.0 °F 100% 29.92 in 7.0 mi Calm Calm - N/A   Overcast
7:35 PM 32.0 °F - 32.0 °F 100% 29.92 in 7.0 mi Calm Calm - N/A   Overcast
7:55 PM 32.0 °F - 32.0 °F 100% 29.92 in 7.0 mi Calm Calm - N/A Snow Light Snow
8:15 PM 32.0 °F 26.4 °F 32.0 °F 100% 29.92 in 4.0 mi NNE 5.8 mph - N/A Snow Light Snow
8:35 PM 32.0 °F 25.6 °F 30.2 °F 93% 29.92 in 4.0 mi NNE 6.9 mph - N/A Snow Light Snow
8:55 PM 32.0 °F 26.4 °F 30.2 °F 93% 29.93 in 4.0 mi NNE 5.8 mph - N/A Snow Light Snow
9:15 PM 32.0 °F 25.6 °F 30.2 °F 93% 29.93 in 4.0 mi NNE 6.9 mph - N/A Snow Light Snow
9:35 PM 30.2 °F 26.7 °F 26.6 °F 86% 29.94 in 7.0 mi NNE 3.5 mph - N/A Snow Light Snow
9:55 PM 30.2 °F 26.7 °F 26.6 °F 86% 29.94 in 10.0 mi NNE 3.5 mph - N/A   Overcast
10:15 PM 30.2 °F 26.7 °F 24.8 °F 80% 29.95 in 10.0 mi NNE 3.5 mph - N/A   Overcast
10:35 PM 28.4 °F 24.6 °F 24.8 °F 86% 29.94 in 3.0 mi NNE 3.5 mph - N/A Snow Light Snow
10:55 PM 28.4 °F - 26.6 °F 93% 29.94 in 5.0 mi Calm Calm - N/A Snow Light Snow
11:15 PM 28.4 °F - 26.6 °F 93% 29.94 in 2.5 mi Calm Calm - N/A Snow Light Snow
11:35 PM 28.4 °F - 26.6 °F 93% 29.94 in 5.0 mi Calm Calm - N/A Snow Light Snow
11:55 PM 28.4 °F - 24.8 °F 86% 29.94 in 7.0 mi Calm Calm - N/A Snow Light Snow